sat.trackr.live / text

‹ back to catalog

STARLINK-30380

NORAD 57780 · 2023-134K

PAYLOAD ACTIVE UNKNOWN

§ Identity

Operator
Country
US
Launch date
2023-09-04
Launch site
AFETR
Launch vehicle
Mass (kg)
RCS (m²)

Purposes: comms

External: N2YO · Heavens-Above · Gunter

§ Orbital elements

Epoch: 2026-09-20T04:31:04.882080Z

Period
94.27 min
Inclination
42.9866°
Eccentricity
0.0000298
Mean motion
15.27582124 rev/d
Perigee alt
482.8 km
Apogee alt
483.2 km
Semi-major
6,861.2 km
B*
1.5523e-5
RAAN
175.9873°
Arg perigee
118.1540°
Mean anomaly
241.9342°
Rev number
16,925

§ Raw data

STARLINK-303801 57780U 23134K   26263.18825095  .00000166  00000+0  15523-4 0  99992 57780  42.9866 175.9873 0000298 118.1540 241.9342 15.27582124169258

JSON: /api/v1/satellites/57780 · /tle

For live sub-satellite position, see the globe view (requires WebGL).

§ Visibility from observer

Set your observer location to see the next 7 days of passes ≥ 10°. The values pass through the URL so the page stays shareable.

No JS? Fill the form by hand. The geolocation button needs JavaScript.